Погода в Понино

Россия / Удмуртская Республика     58°15′07″N   52°49′11″E
темп.,
°C
ветер,
м/с
пор.,
м/с
влажн.,
%
обл.,
%
осадки,
мм/ч
давл.,
гПа
погр.,
м
15 мая, сб
сб1501:00+16ю277454 0.0 1017147
04:00+15юз278312 0.0 1018159
07:00+18зюз486977 0.0 1018307
10:00+22ю2261100 0.0 1018400
13:00+23ю2457100 0.1 1018533
16:00+29юз5123696 0.1 10152517
19:00+24юз512435 0.0 1015773
22:00+20юз4145373 0.0 1016486
16 мая, вс
вс1601:00+17юз31160100 0.0 1016256
04:00+15ююз257158 0.0 101799
07:00+19ююз39605 0.0 1017255
10:00+25ююз59388 0.0 1016738
13:00+29ююз713265 0.0 10152737
16:00+29юз6122740 0.0 10143237
19:00+25юз51141100 0.0 1014861
22:00+21юз41257100 0.2 1014392
17 мая, пн
пн1701:00+16з2387100 1.0 101558
04:00+14зюз25949 1.1 101696
07:00+17юз36775 0.1 1017248
10:00+22зюз485313 0.1 10171372
13:00+25з58400 0.0 10171994
16:00+25з57395 0.0 10171946
19:00+22з375093 0.0 1017494
22:00+17з267283 0.0 1017113
18 мая, вт
вт1801:00+15зсз2280100 0.0 101827
04:00+15зсз1180100 0.0 101811
07:00+18ссз136412 0.0 1019233
10:00+23сз234677 0.0 10191110
13:00+26сз243636 0.0 10181812
16:00+26ссз23345 0.0 10182128
19:00+23св36460 0.0 1018208
22:00+17всв38584 0.0 1019138
19 мая, ср
ср1901:00+15вюв311675 0.0 1020284
04:00+14вюв310740 0.0 1020235
07:00+18юв48610 0.0 1020316
10:00+23юв56434 0.0 1020915
13:00+26юв55381 0.0 10191528
16:00+26ююв45370 0.0 10181829
19:00+23юв48500 0.0 1017475
22:00+19юв412620 0.0 1017383